| time (UTC) | temp C | wind direction | speed KPH | gust KPH | rain 1hr cm | rain 24hr cm | rain mn cm | humidity % | barometer mb |
| 20260902183905 | 30 | 124 | 6.4 | 16.1 | 0.00 | 0.00 | 0.00 | 52 | 1019.4 |
| 20260902183405 | 30 | 126 | 3.2 | 12.9 | 0.00 | 0.00 | 0.00 | 51 | 1019.3 |
| 20260902182905 | 30 | 87 | 1.6 | 8.0 | 0.00 | 0.00 | 0.00 | 50 | 1019.3 |
| 20260902181905 | 31 | 129 | 4.8 | 19.3 | 0.00 | 0.00 | 0.00 | 48 | 1019.2 |
| 20260902181405 | 31 | 121 | 1.6 | 11.3 | 0.00 | 0.00 | 0.00 | 46 | 1019.2 |
| 20260902180405 | 33 | 182 | 1.6 | 11.3 | 0.00 | 0.00 | 0.00 | 35 | 1019.2 |
| 20260902175905 | 33 | 132 | 0.0 | 3.2 | 0.00 | 0.00 | 0.00 | 23 | 1019.1 |
| 20260902175405 | 33 | 132 | 0.0 | 3.2 | 0.00 | 0.00 | 0.00 | 23 | 1019.0 |
| 20260902174905 | 33 | 132 | 1.6 | 4.8 | 0.00 | 0.00 | 0.00 | 24 | 1019.0 |
| 20260902174405 | 33 | 154 | 1.6 | 11.3 | 0.00 | 0.00 | 0.00 | 24 | 1019.0 |
| 20260902173905 | 33 | 115 | 1.6 | 9.7 | 0.00 | 0.00 | 0.00 | 24 | 1019.0 |
| 20260902173405 | 33 | 138 | 1.6 | 9.7 | 0.00 | 0.00 | 0.00 | 24 | 1019.0 |
| 20260902172906 | 33 | 138 | 1.6 | 8.0 | 0.00 | 0.00 | 0.00 | 24 | 1019.0 |
| 20260902172405 | 33 | 117 | 0.0 | 8.0 | 0.00 | 0.00 | 0.00 | 25 | 1018.9 |
| 20260902171908 | 33 | 161 | 1.6 | 4.8 | 0.00 | 0.00 | 0.00 | 25 | 1019.0 |
| 20260902171405 | 33 | 162 | 1.6 | 4.8 | 0.00 | 0.00 | 0.00 | 25 | 1019.0 |
| 20260902170905 | 33 | 126 | 0.0 | 11.3 | 0.00 | 0.00 | 0.00 | 25 | 1019.1 |
| 20260902170405 | 33 | 134 | 0.0 | 3.2 | 0.00 | 0.00 | 0.00 | 25 | 1019.2 |
| 20260902165905 | 33 | 134 | 0.0 | 12.9 | 0.00 | 0.00 | 0.00 | 25 | 1019.3 |
| 20260902165405 | 33 | 132 | 1.6 | 8.0 | 0.00 | 0.00 | 0.00 | 25 | 1019.3 |
| 20260902164905 | 34 | 132 | 1.6 | 4.8 | 0.00 | 0.00 | 0.00 | 25 | 1019.3 |
| 20260902164405 | 34 | 129 | 1.6 | 11.3 | 0.00 | 0.00 | 0.00 | 27 | 1019.3 |
| 20260902163905 | 33 | 171 | 1.6 | 9.7 | 0.00 | 0.00 | 0.00 | 27 | 1019.3 |
| 20260902163405 | 33 | 151 | 4.8 | 11.3 | 0.00 | 0.00 | 0.00 | 26 | 1019.4 |
| 20260902162905 | 33 | 169 | 1.6 | 8.0 | 0.00 | 0.00 | 0.00 | 27 | 1019.4 |
| 20260902162405 | 33 | 165 | 1.6 | 8.0 | 0.00 | 0.00 | 0.00 | 27 | 1019.5 |
| 20260902161905 | 33 | 128 | 3.2 | 8.0 | 0.00 | 0.00 | 0.00 | 27 | 1019.5 |
| 20260902161405 | 33 | 194 | 1.6 | 11.3 | 0.00 | 0.00 | 0.00 | 28 | 1019.6 |
| 20260902160905 | 33 | 213 | 1.6 | 16.1 | 0.00 | 0.00 | 0.00 | 27 | 1019.5 |
| 20260902160405 | 33 | 103 | 0.0 | 4.8 | 0.00 | 0.00 | 0.00 | 28 | 1019.6 |
| 20260902155905 | 33 | 103 | 4.8 | 11.3 | 0.00 | 0.00 | 0.00 | 28 | 1019.6 |
| 20260902155406 | 33 | 196 | 3.2 | 11.3 | 0.00 | 0.00 | 0.00 | 28 | 1019.7 |
| 20260902154905 | 33 | 131 | 4.8 | 11.3 | 0.00 | 0.00 | 0.00 | 28 | 1019.7 |
| 20260902154405 | 33 | 160 | 4.8 | 11.3 | 0.00 | 0.00 | 0.00 | 28 | 1019.7 |
| 20260902153905 | 33 | 76 | 4.8 | 11.3 | 0.00 | 0.00 | 0.00 | 29 | 1019.7 |
| 20260902153405 | 33 | 213 | 1.6 | 9.7 | 0.00 | 0.00 | 0.00 | 29 | 1019.7 |
| 20260902152905 | 33 | 165 | 1.6 | 9.7 | 0.00 | 0.00 | 0.00 | 29 | 1019.7 |
| 20260902152405 | 33 | 188 | 4.8 | 11.3 | 0.00 | 0.00 | 0.00 | 29 | 1019.8 |
| 20260902151905 | 33 | 122 | 0.0 | 9.7 | 0.00 | 0.00 | 0.00 | 29 | 1019.8 |
| 20260902151405 | 33 | 120 | 3.2 | 14.5 | 0.00 | 0.00 | 0.00 | 29 | 1019.8 |
| 20260902150906 | 33 | 180 | 0.0 | 4.8 | 0.00 | 0.00 | 0.00 | 30 | 1019.7 |
| 20260902150405 | 33 | 187 | 1.6 | 4.8 | 0.00 | 0.00 | 0.00 | 30 | 1019.9 |
| 20260902145405 | 33 | 113 | 3.2 | 12.9 | 0.00 | 0.00 | 0.00 | 31 | 1019.9 |
| 20260902144905 | 33 | 144 | 3.2 | 16.1 | 0.00 | 0.00 | 0.00 | 31 | 1020.0 |
| 20260902144405 | 33 | 180 | 1.6 | 8.0 | 0.00 | 0.00 | 0.00 | 32 | 1020.0 |
| 20260902143905 | 33 | 160 | 4.8 | 12.9 | 0.00 | 0.00 | 0.00 | 31 | 1020.0 |
| 20260902143405 | 33 | 115 | 1.6 | 11.3 | 0.00 | 0.00 | 0.00 | 32 | 1020.0 |
| 20260902142905 | 32 | 112 | 1.6 | 16.1 | 0.00 | 0.00 | 0.00 | 32 | 1020.1 |
| 20260902142405 | 33 | 158 | 6.4 | 11.3 | 0.00 | 0.00 | 0.00 | 32 | 1020.1 |
| 20260902141905 | 33 | 91 | 6.4 | 12.9 | 0.00 | 0.00 | 0.00 | 32 | 1020.3 |
| 20260902141405 | 33 | 118 | 0.0 | 8.0 | 0.00 | 0.00 | 0.00 | 32 | 1020.2 |
| 20260902140905 | 32 | 169 | 1.6 | 11.3 | 0.00 | 0.00 | 0.00 | 34 | 1020.3 |
| 20260902140405 | 32 | 267 | 8.0 | 12.9 | 0.00 | 0.00 | 0.00 | 35 | 1020.4 |
| 20260902135905 | 32 | 232 | 1.6 | 4.8 | 0.00 | 0.00 | 0.00 | 34 | 1020.4 |
| 20260902135405 | 32 | 130 | 1.6 | 9.7 | 0.00 | 0.00 | 0.00 | 35 | 1020.4 |
| 20260902134405 | 32 | 135 | 1.6 | 8.0 | 0.00 | 0.00 | 0.00 | 35 | 1020.4 |
| 20260902133905 | 32 | 141 | 1.6 | 9.7 | 0.00 | 0.00 | 0.00 | 34 | 1020.5 |
| 20260902133405 | 32 | 86 | 1.6 | 11.3 | 0.00 | 0.00 | 0.00 | 32 | 1020.5 |
| 20260902132905 | 32 | 162 | 1.6 | 9.7 | 0.00 | 0.00 | 0.00 | 33 | 1020.5 |
| 20260902132405 | 32 | 139 | 3.2 | 9.7 | 0.00 | 0.00 | 0.00 | 34 | 1020.6 |
| 20260902131906 | 32 | 81 | 0.0 | 9.7 | 0.00 | 0.00 | 0.00 | 35 | 1020.5 |
| 20260902131405 | 31 | 13 | 1.6 | 8.0 | 0.00 | 0.00 | 0.00 | 36 | 1020.6 |
| 20260902130905 | 31 | 311 | 1.6 | 4.8 | 0.00 | 0.00 | 0.00 | 34 | 1020.7 |
| 20260902130405 | 31 | 51 | 0.0 | 4.8 | 0.00 | 0.00 | 0.00 | 33 | 1020.8 |
| 20260902125405 | 31 | 323 | 0.0 | 9.7 | 0.00 | 0.00 | 0.00 | 37 | 1020.8 |
| 20260902124905 | 31 | 103 | 0.0 | 0.0 | 0.00 | 0.00 | 0.00 | 37 | 1020.9 |
| 20260902124405 | 31 | 103 | 0.0 | 3.2 | 0.00 | 0.00 | 0.00 | 36 | 1020.9 |
| 20260902123905 | 31 | 103 | 1.6 | 11.3 | 0.00 | 0.00 | 0.00 | 38 | 1021.0 |
| 20260902123405 | 30 | 34 | 1.6 | 11.3 | 0.00 | 0.00 | 0.00 | 38 | 1021.1 |
| 20260902122905 | 30 | 55 | 0.0 | 1.6 | 0.00 | 0.00 | 0.00 | 40 | 1021.2 |
| 20260902122405 | 29 | 55 | 0.0 | 9.7 | 0.00 | 0.00 | 0.00 | 41 | 1021.3 |
| 20260902121905 | 30 | 24 | 1.6 | 11.3 | 0.00 | 0.00 | 0.00 | 40 | 1021.4 |
| 20260902120905 | 28 | 48 | 3.2 | 8.0 | 0.00 | 0.00 | 0.00 | 43 | 1021.5 |
| 20260902120404 | 28 | 352 | 4.8 | 16.1 | 0.00 | 0.00 | 0.00 | 44 | 1021.6 |
| 20260902115905 | 28 | 350 | 1.6 | 4.8 | 0.00 | 0.00 | 0.00 | 45 | 1021.6 |
| 20260902115405 | 28 | 19 | 1.6 | 8.0 | 0.00 | 0.00 | 0.00 | 45 | 1021.6 |
| 20260902114905 | 28 | 4 | 4.8 | 12.9 | 0.00 | 0.00 | 0.00 | 44 | 1021.7 |
| 20260902114405 | 27 | 46 | 0.0 | 14.5 | 0.00 | 0.00 | 0.00 | 44 | 1021.6 |
| 20260902113905 | 27 | 13 | 0.0 | 8.0 | 0.00 | 0.00 | 0.00 | 46 | 1021.7 |
| 20260902113405 | 28 | 19 | 0.0 | 9.7 | 0.00 | 0.00 | 0.00 | 48 | 1021.7 |
| 20260902112905 | 28 | 84 | 0.0 | 3.2 | 0.00 | 0.00 | 0.00 | 49 | 1021.7 |
| 20260902112405 | 27 | 85 | 0.0 | 1.6 | 0.00 | 0.00 | 0.00 | 51 | 1021.8 |
| 20260902110905 | 26 | 13 | 3.2 | 11.3 | 0.00 | 0.00 | 0.00 | 56 | 1021.8 |
| 20260902110405 | 26 | 203 | 0.0 | 1.6 | 0.00 | 0.00 | 0.00 | 57 | 1021.8 |
| 20260902105905 | 26 | 203 | 0.0 | 0.0 | 0.00 | 0.00 | 0.00 | 58 | 1021.8 |
| 20260902105405 | 26 | 203 | 0.0 | 1.6 | 0.00 | 0.00 | 0.00 | 61 | 1021.8 |
| 20260902104905 | 25 | 203 | 0.0 | 4.8 | 0.00 | 0.00 | 0.00 | 59 | 1021.8 |
| 20260902104405 | 25 | 203 | 0.0 | 1.6 | 0.00 | 0.00 | 0.00 | 61 | 1021.8 |
| 20260902103905 | 24 | 203 | 0.0 | 1.6 | 0.00 | 0.00 | 0.00 | 63 | 1021.8 |
| 20260902103405 | 24 | 203 | 3.2 | 9.7 | 0.00 | 0.00 | 0.00 | 63 | 1021.9 |
| 20260902102905 | 23 | 181 | 0.0 | 8.0 | 0.00 | 0.00 | 0.00 | 65 | 1021.8 |
| 20260902102405 | 24 | 181 | 1.6 | 8.0 | 0.00 | 0.00 | 0.00 | 65 | 1021.9 |
| 20260902101905 | 23 | 180 | 0.0 | 4.8 | 0.00 | 0.00 | 0.00 | 66 | 1021.9 |
| 20260902100905 | 23 | 312 | 0.0 | 1.6 | 0.00 | 0.00 | 0.00 | 66 | 1021.8 |
| 20260902100405 | 22 | 311 | 0.0 | 8.0 | 0.00 | 0.00 | 0.00 | 71 | 1021.9 |
| 20260902095905 | 22 | 27 | 0.0 | 3.2 | 0.00 | 0.00 | 0.00 | 71 | 1021.8 |
| 20260902095405 | 22 | 27 | 0.0 | 1.6 | 0.00 | 0.00 | 0.00 | 73 | 1021.9 |
| 20260902094905 | 22 | 28 | 0.0 | 1.6 | 0.00 | 0.00 | 0.00 | 74 | 1021.7 |
| 20260902094405 | 21 | 28 | 0.0 | 0.0 | 0.00 | 0.00 | 0.00 | 75 | 1021.7 |
| 20260902093905 | 21 | 28 | 0.0 | 1.6 | 0.00 | 0.00 | 0.00 | 75 | 1021.7 |
| 20260902093405 | 21 | 28 | 0.0 | 0.0 | 0.00 | 0.00 | 0.00 | 76 | 1021.8 |
| 20260902092905 | 21 | 28 | 0.0 | 0.0 | 0.00 | 0.00 | 0.00 | 78 | 1021.7 |
| 20260902092405 | 20 | 28 | 0.0 | 1.6 | 0.00 | 0.00 | 0.00 | 79 | 1021.7 |
| 20260902091405 | 20 | 213 | 0.0 | 0.0 | 0.00 | 0.00 | 0.00 | 79 | 1021.6 |
| 20260902090905 | 20 | 213 | 0.0 | 0.0 | 0.00 | 0.00 | 0.00 | 80 | 1021.5 |
| 20260902090405 | 19 | 213 | 0.0 | 0.0 | 0.00 | 0.00 | 0.00 | 83 | 1021.4 |
| 20260902085905 | 19 | 213 | 0.0 | 1.6 | 0.00 | 0.00 | 0.00 | 86 | 1021.4 |
| 20260902085405 | 18 | 213 | 0.0 | 0.0 | 0.00 | 0.00 | 0.00 | 88 | 1021.4 |
| 20260902084905 | 18 | 213 | 0.0 | 1.6 | 0.00 | 0.00 | 0.00 | 90 | 1021.4 |
| 20260902084404 | 18 | 213 | 0.0 | 4.8 | 0.00 | 0.00 | 0.00 | 91 | 1021.3 |
| 20260902083905 | 17 | 213 | 0.0 | 0.0 | 0.00 | 0.00 | 0.00 | 93 | 1021.5 |
| 20260902083405 | 17 | 213 | 0.0 | 0.0 | 0.00 | 0.00 | 0.00 | 93 | 1021.4 |
| 20260902082405 | 16 | 213 | 0.0 | 0.0 | 0.00 | 0.00 | 0.00 | 93 | 1021.4 |
| 20260902081904 | 16 | 213 | 0.0 | 8.0 | 0.00 | 0.00 | 0.00 | 93 | 1021.4 |
| 20260902081405 | 16 | 213 | 0.0 | 8.0 | 0.00 | 0.00 | 0.00 | 94 | 1021.4 |
| 20260902080905 | 16 | 213 | 1.6 | 9.7 | 0.00 | 0.00 | 0.00 | 94 | 1021.4 |
| 20260902080404 | 16 | 203 | 3.2 | 4.8 | 0.00 | 0.00 | 0.00 | 94 | 1021.4 |
| 20260902075904 | 16 | 203 | 0.0 | 0.0 | 0.00 | 0.00 | 0.00 | 94 | 1021.4 |
| 20260902074905 | 16 | 203 | 3.2 | 8.0 | 0.00 | 0.00 | 0.00 | 94 | 1021.2 |
| 20260902074405 | 16 | 203 | 1.6 | 4.8 | 0.00 | 0.00 | 0.00 | 93 | 1021.2 |
| 20260902073404 | 16 | 203 | 0.0 | 4.8 | 0.00 | 0.00 | 0.00 | 93 | 1021.1 |
| 20260902072904 | 15 | 203 | 0.0 | 8.0 | 0.00 | 0.00 | 0.00 | 93 | 1021.0 |
| 20260902072405 | 15 | 203 | 1.6 | 8.0 | 0.00 | 0.00 | 0.00 | 93 | 1020.9 |
| 20260902071905 | 15 | 203 | 3.2 | 8.0 | 0.00 | 0.00 | 0.00 | 93 | 1020.9 |
| 20260902071405 | 15 | 203 | 3.2 | 8.0 | 0.00 | 0.00 | 0.00 | 92 | 1020.9 |
| 20260902070904 | 16 | 203 | 4.8 | 8.0 | 0.00 | 0.00 | 0.00 | 93 | 1020.8 |
| 20260902070404 | 16 | 203 | 3.2 | 8.0 | 0.00 | 0.00 | 0.00 | 93 | 1020.7 |
| 20260902065905 | 16 | 203 | 0.0 | 0.0 | 0.00 | 0.00 | 0.00 | 93 | 1020.7 |
| 20260902065405 | 16 | 203 | 0.0 | 0.0 | 0.00 | 0.00 | 0.00 | 93 | 1020.6 |
| 20260902064904 | 16 | 203 | 0.0 | 0.0 | 0.00 | 0.00 | 0.00 | 93 | 1020.5 |
| 20260902064404 | 16 | 203 | 1.6 | 9.7 | 0.00 | 0.00 | 0.00 | 92 | 1020.5 |
| 20260902063905 | 16 | 118 | 1.6 | 8.0 | 0.00 | 0.00 | 0.00 | 92 | 1020.3 |
| 20260902063404 | 16 | 118 | 0.0 | 3.2 | 0.00 | 0.00 | 0.00 | 92 | 1020.3 |
| 20260902062905 | 16 | 118 | 0.0 | 3.2 | 0.00 | 0.00 | 0.00 | 92 | 1020.3 |
| 20260902062405 | 16 | 118 | 0.0 | 0.0 | 0.00 | 0.00 | 0.00 | 92 | 1020.3 |
| 20260902061905 | 16 | 118 | 0.0 | 0.0 | 0.00 | 0.00 | 0.00 | 92 | 1020.2 |
| 20260902060907 | 16 | 118 | 0.0 | 0.0 | 0.00 | 0.00 | 0.00 | 92 | 1020.2 |
| 20260902060405 | 16 | 118 | 0.0 | 0.0 | 0.00 | 0.00 | 0.00 | 92 | 1020.1 |
| 20260902055905 | 16 | 118 | 0.0 | 0.0 | 0.00 | 0.00 | 0.00 | 92 | 1020.1 |
| 20260902054905 | 16 | 118 | 0.0 | 0.0 | 0.00 | 0.00 | 0.00 | 92 | 1020.0 |
| 20260902054405 | 16 | 118 | 0.0 | 0.0 | 0.00 | 0.00 | 0.00 | 91 | 1020.0 |
| 20260902053905 | 16 | 118 | 0.0 | 0.0 | 0.00 | 0.00 | 0.00 | 91 | 1020.0 |
| 20260902052405 | 16 | 118 | 0.0 | 0.0 | 0.00 | 0.00 | 0.00 | 91 | 1020.1 |
| 20260902051405 | 16 | 118 | 0.0 | 0.0 | 0.00 | 0.00 | 0.00 | 91 | 1020.0 |
| 20260902050904 | 16 | 118 | 0.0 | 0.0 | 0.00 | 0.00 | 0.00 | 91 | 1020.0 |
| 20260902050405 | 16 | 118 | 0.0 | 1.6 | 0.00 | 0.00 | 0.00 | 91 | 1019.9 |
| 20260902045905 | 16 | 118 | 0.0 | 0.0 | 0.00 | 0.00 | 0.00 | 91 | 1019.8 |
| 20260902045405 | 17 | 118 | 0.0 | 0.0 | 0.00 | 0.00 | 0.00 | 91 | 1019.9 |
| 20260902044405 | 17 | 118 | 0.0 | 4.8 | 0.00 | 0.00 | 0.00 | 91 | 1019.8 |
| 20260902043904 | 17 | 118 | 0.0 | 3.2 | 0.00 | 0.00 | 0.00 | 91 | 1019.8 |
| 20260902043405 | 17 | 118 | 0.0 | 0.0 | 0.00 | 0.00 | 0.00 | 91 | 1019.9 |
| 20260902042905 | 17 | 118 | 0.0 | 0.0 | 0.00 | 0.00 | 0.00 | 91 | 1019.7 |
| 20260902042405 | 17 | 118 | 0.0 | 0.0 | 0.00 | 0.00 | 0.00 | 91 | 1019.8 |
| 20260902041905 | 17 | 118 | 0.0 | 4.8 | 0.00 | 0.00 | 0.00 | 90 | 1019.7 |
| 20260902041405 | 17 | 118 | 0.0 | 0.0 | 0.00 | 0.00 | 0.00 | 90 | 1019.7 |
| 20260902040905 | 17 | 118 | 0.0 | 0.0 | 0.00 | 0.00 | 0.00 | 90 | 1019.8 |
| 20260902040404 | 17 | 118 | 0.0 | 0.0 | 0.00 | 0.00 | 0.00 | 90 | 1019.8 |
| 20260902035904 | 17 | 118 | 0.0 | 4.8 | 0.00 | 0.00 | 0.00 | 90 | 1019.8 |
| 20260902035405 | 17 | 118 | 1.6 | 4.8 | 0.00 | 0.00 | 0.00 | 90 | 1019.9 |
| 20260902034905 | 17 | 118 | 1.6 | 4.8 | 0.00 | 0.00 | 0.00 | 90 | 1019.9 |
| 20260902034405 | 17 | 118 | 0.0 | 4.8 | 0.00 | 0.00 | 0.00 | 90 | 1019.9 |
| 20260902033404 | 17 | 118 | 0.0 | 0.0 | 0.00 | 0.00 | 0.00 | 90 | 1019.9 |
| 20260902032904 | 17 | 118 | 0.0 | 4.8 | 0.00 | 0.00 | 0.00 | 89 | 1020.0 |
| 20260902032405 | 17 | 118 | 0.0 | 0.0 | 0.00 | 0.00 | 0.00 | 89 | 1019.9 |
| 20260902031904 | 17 | 118 | 0.0 | 0.0 | 0.00 | 0.00 | 0.00 | 90 | 1020.1 |
| 20260902030905 | 17 | 118 | 0.0 | 4.8 | 0.00 | 0.00 | 0.00 | 89 | 1020.0 |
| 20260902030405 | 17 | 118 | 1.6 | 4.8 | 0.00 | 0.00 | 0.00 | 89 | 1020.0 |
| 20260902025904 | 17 | 118 | 1.6 | 8.0 | 0.00 | 0.00 | 0.00 | 89 | 1020.0 |
| 20260902025404 | 17 | 118 | 1.6 | 9.7 | 0.00 | 0.00 | 0.00 | 89 | 1020.1 |
| 20260902024405 | 17 | 118 | 0.0 | 4.8 | 0.00 | 0.00 | 0.00 | 89 | 1020.1 |
| 20260902023905 | 17 | 118 | 0.0 | 4.8 | 0.00 | 0.00 | 0.00 | 89 | 1020.0 |
| 20260902023405 | 17 | 118 | 1.6 | 9.7 | 0.00 | 0.00 | 0.00 | 88 | 1020.0 |
| 20260902021905 | 17 | 118 | 0.0 | 3.2 | 0.00 | 0.00 | 0.00 | 88 | 1020.1 |
| 20260902021405 | 17 | 118 | 1.6 | 9.7 | 0.00 | 0.00 | 0.00 | 88 | 1020.2 |
| 20260902020905 | 17 | 160 | 0.0 | 4.8 | 0.00 | 0.00 | 0.00 | 88 | 1020.3 |
| 20260902020405 | 17 | 161 | 1.6 | 9.7 | 0.00 | 0.00 | 0.00 | 88 | 1020.3 |
| 20260902015904 | 17 | 161 | 0.0 | 0.0 | 0.00 | 0.00 | 0.00 | 88 | 1020.3 |
| 20260902015404 | 17 | 161 | 0.0 | 3.2 | 0.00 | 0.00 | 0.00 | 88 | 1020.4 |
| 20260902014905 | 17 | 161 | 0.0 | 3.2 | 0.00 | 0.00 | 0.00 | 88 | 1020.4 |
| 20260902014404 | 17 | 161 | 3.2 | 8.0 | 0.00 | 0.00 | 0.00 | 88 | 1020.4 |
| 20260902013904 | 17 | 162 | 0.0 | 1.6 | 0.00 | 0.00 | 0.00 | 88 | 1020.5 |
| 20260902013404 | 17 | 162 | 0.0 | 0.0 | 0.00 | 0.00 | 0.00 | 88 | 1020.5 |
| 20260902012905 | 17 | 162 | 0.0 | 0.0 | 0.00 | 0.00 | 0.00 | 88 | 1020.4 |
| 20260902012404 | 17 | 162 | 0.0 | 4.8 | 0.00 | 0.00 | 0.00 | 88 | 1020.4 |
| 20260902011904 | 17 | 113 | 3.2 | 9.7 | 0.00 | 0.00 | 0.00 | 88 | 1020.4 |
| 20260902011405 | 17 | 334 | 3.2 | 9.7 | 0.00 | 0.00 | 0.00 | 88 | 1020.5 |
| 20260902010905 | 17 | 129 | 3.2 | 11.3 | 0.00 | 0.00 | 0.00 | 88 | 1020.5 |
| 20260902010404 | 17 | 130 | 1.6 | 9.7 | 0.00 | 0.00 | 0.00 | 88 | 1020.5 |
| 20260902005904 | 17 | 130 | 0.0 | 3.2 | 0.00 | 0.00 | 0.00 | 88 | 1020.5 |
| 20260902005405 | 17 | 130 | 1.6 | 4.8 | 0.00 | 0.00 | 0.00 | 88 | 1020.5 |
| 20260902004904 | 17 | 168 | 1.6 | 12.9 | 0.00 | 0.00 | 0.00 | 88 | 1020.6 |
| 20260902004404 | 17 | 139 | 3.2 | 9.7 | 0.00 | 0.00 | 0.00 | 88 | 1020.5 |
| 20260902003904 | 17 | 168 | 4.8 | 11.3 | 0.00 | 0.00 | 0.00 | 88 | 1020.6 |
| 20260902001904 | 17 | 100 | 0.0 | 9.7 | 0.00 | 0.00 | 0.00 | 88 | 1020.5 |
| 20260902001405 | 17 | 108 | 3.2 | 19.3 | 0.00 | 0.00 | 0.00 | 88 | 1020.6 |
| 20260902000905 | 17 | 120 | 1.6 | 14.5 | 0.00 | 0.00 | 0.00 | 88 | 1020.6 |
| 20260902000406 | 17 | 129 | 1.6 | 12.9 | 0.00 | 0.00 | 0.00 | 88 | 1020.5 |
| 20260901235905 | 17 | 85 | 0.0 | 14.5 | 0.00 | 0.00 | 0.00 | 88 | 1020.4 |
| 20260901235404 | 17 | 143 | 1.6 | 11.3 | 0.00 | 0.00 | 0.00 | 88 | 1020.3 |
| 20260901234905 | 17 | 106 | 6.4 | 16.1 | 0.00 | 0.00 | 0.00 | 88 | 1020.2 |
| 20260901233904 | 17 | 137 | 4.8 | 20.9 | 0.00 | 0.00 | 0.00 | 87 | 1020.2 |
| 20260901233404 | 17 | 109 | 4.8 | 16.1 | 0.00 | 0.00 | 0.00 | 87 | 1020.2 |
| 20260901232904 | 17 | 153 | 4.8 | 19.3 | 0.00 | 0.00 | 0.00 | 87 | 1020.3 |
| 20260901232404 | 17 | 102 | 4.8 | 12.9 | 0.00 | 0.00 | 0.00 | 87 | 1020.4 |
| 20260901231905 | 17 | 134 | 8.0 | 12.9 | 0.00 | 0.00 | 0.00 | 86 | 1020.4 |
| 20260901231404 | 17 | 117 | 4.8 | 12.9 | 0.00 | 0.00 | 0.00 | 86 | 1020.3 |
| 20260901230904 | 18 | 132 | 8.0 | 14.5 | 0.00 | 0.00 | 0.00 | 85 | 1020.4 |
| 20260901230404 | 18 | 114 | 8.0 | 19.3 | 0.00 | 0.00 | 0.00 | 85 | 1020.4 |
| 20260901225904 | 18 | 123 | 3.2 | 16.1 | 0.00 | 0.00 | 0.00 | 85 | 1020.4 |
| 20260901225404 | 18 | 131 | 8.0 | 16.1 | 0.00 | 0.00 | 0.00 | 84 | 1020.3 |
| 20260901224404 | 18 | 109 | 1.6 | 12.9 | 0.00 | 0.00 | 0.00 | 84 | 1020.4 |
| 20260901223905 | 18 | 113 | 8.0 | 16.1 | 0.00 | 0.00 | 0.00 | 84 | 1020.4 |
| 20260901222904 | 18 | 128 | 6.4 | 16.1 | 0.00 | 0.00 | 0.00 | 83 | 1020.6 |
| 20260901222405 | 18 | 155 | 4.8 | 11.3 | 0.00 | 0.00 | 0.00 | 83 | 1020.5 |
| 20260901221904 | 18 | 116 | 3.2 | 11.3 | 0.00 | 0.00 | 0.00 | 82 | 1020.4 |
| 20260901221405 | 18 | 131 | 4.8 | 14.5 | 0.00 | 0.00 | 0.00 | 82 | 1020.4 |
| 20260901220905 | 18 | 137 | 6.4 | 14.5 | 0.00 | 0.00 | 0.00 | 82 | 1020.4 |
| 20260901220404 | 18 | 116 | 9.7 | 14.5 | 0.00 | 0.00 | 0.00 | 81 | 1020.5 |
| 20260901215404 | 18 | 130 | 6.4 | 16.1 | 0.00 | 0.00 | 0.00 | 81 | 1020.4 |
| 20260901214904 | 18 | 124 | 1.6 | 16.1 | 0.00 | 0.00 | 0.00 | 80 | 1020.5 |
| 20260901214404 | 19 | 117 | 4.8 | 14.5 | 0.00 | 0.00 | 0.00 | 80 | 1020.6 |
| 20260901213904 | 19 | 114 | 1.6 | 11.3 | 0.00 | 0.00 | 0.00 | 79 | 1020.4 |
| 20260901213404 | 19 | 138 | 4.8 | 16.1 | 0.00 | 0.00 | 0.00 | 79 | 1020.5 |
| 20260901212905 | 19 | 30 | 4.8 | 14.5 | 0.00 | 0.00 | 0.00 | 79 | 1020.6 |
| 20260901212405 | 19 | 138 | 1.6 | 9.7 | 0.00 | 0.00 | 0.00 | 78 | 1020.5 |
| 20260901211905 | 19 | 113 | 1.6 | 11.3 | 0.00 | 0.00 | 0.00 | 78 | 1020.5 |
| 20260901211405 | 19 | 108 | 3.2 | 16.1 | 0.00 | 0.00 | 0.00 | 77 | 1020.4 |
| 20260901210907 | 20 | 162 | 4.8 | 16.1 | 0.00 | 0.00 | 0.00 | 76 | 1020.3 |
| 20260901210405 | 20 | 167 | 3.2 | 14.5 | 0.00 | 0.00 | 0.00 | 76 | 1020.3 |
| 20260901205905 | 20 | 122 | 1.6 | 11.3 | 0.00 | 0.00 | 0.00 | 75 | 1020.2 |
| 20260901205404 | 20 | 155 | 3.2 | 14.5 | 0.00 | 0.00 | 0.00 | 74 | 1020.1 |
| 20260901204904 | 20 | 104 | 4.8 | 14.5 | 0.00 | 0.00 | 0.00 | 74 | 1020.1 |
| 20260901204404 | 20 | 135 | 1.6 | 12.9 | 0.00 | 0.00 | 0.00 | 73 | 1020.1 |
| 20260901203905 | 20 | 167 | 3.2 | 19.3 | 0.00 | 0.00 | 0.00 | 73 | 1020.0 |
| 20260901203404 | 20 | 137 | 3.2 | 19.3 | 0.00 | 0.00 | 0.00 | 72 | 1020.0 |
| 20260901202905 | 20 | 134 | 1.6 | 16.1 | 0.00 | 0.00 | 0.00 | 71 | 1020.0 |
| 20260901202405 | 20 | 128 | 8.0 | 16.1 | 0.00 | 0.00 | 0.00 | 71 | 1020.0 |
| 20260901201904 | 21 | 143 | 3.2 | 14.5 | 0.00 | 0.00 | 0.00 | 70 | 1020.0 |
| 20260901200404 | 21 | 167 | 3.2 | 14.5 | 0.00 | 0.00 | 0.00 | 68 | 1019.8 |
| 20260901195404 | 21 | 97 | 3.2 | 12.9 | 0.00 | 0.00 | 0.00 | 67 | 1019.6 |
| 20260901194904 | 21 | 62 | 1.6 | 9.7 | 0.00 | 0.00 | 0.00 | 67 | 1019.5 |
| 20260901194404 | 21 | 133 | 1.6 | 11.3 | 0.00 | 0.00 | 0.00 | 67 | 1019.4 |
| 20260901193904 | 21 | 86 | 3.2 | 12.9 | 0.00 | 0.00 | 0.00 | 66 | 1019.4 |
| 20260901193404 | 21 | 101 | 1.6 | 19.3 | 0.00 | 0.00 | 0.00 | 66 | 1019.4 |
| 20260901192906 | 22 | 65 | 4.8 | 16.1 | 0.00 | 0.00 | 0.00 | 66 | 1019.4 |
| 20260901192405 | 22 | 170 | 1.6 | 19.3 | 0.00 | 0.00 | 0.00 | 65 | 1019.4 |
| 20260901191905 | 22 | 126 | 4.8 | 19.3 | 0.00 | 0.00 | 0.00 | 64 | 1019.4 |
| 20260901191405 | 22 | 109 | 1.6 | 11.3 | 0.00 | 0.00 | 0.00 | 64 | 1019.4 |
| 20260901190905 | 22 | 115 | 3.2 | 16.1 | 0.00 | 0.00 | 0.00 | 64 | 1019.3 |
| 20260901190405 | 22 | 79 | 0.0 | 11.3 | 0.00 | 0.00 | 0.00 | 63 | 1019.4 |
| 20260901185906 | 22 | 111 | 4.8 | 20.9 | 0.00 | 0.00 | 0.00 | 62 | 1019.3 |
| 20260901185405 | 23 | 147 | 1.6 | 11.3 | 0.00 | 0.00 | 0.00 | 63 | 1019.3 |